AEHF SV-1

operational
NORAD ID: 36868 Int'l Des: 2010-039 Owner: AFMCSW Country: US
HEOCIRCULARGSO

About AEHF SV-1

Description loading...

Live Position

Loading 3D Globe...

Upcoming Passes

Altitude History

Altitude vs Time

uPlot chart will show altitude changes over time

Two-Line Element Set

1 36868U 10039A 26061.16618515 .00000134 00000-0 00000+0 0 9999
2 36868 7.9575 69.4408 0004452 259.7429 280.6203 1.00277349 52584
Epoch: Mar 2, 2026 • Age: 44 hours

Current Status

Altitude 35802.2 km
Velocity 3.07 km/s
Sub-Earth Point 7.39°N, 29.89°E
Launch Date Aug 14, 2010
Age 15.5 years
Type other

Technical Details

Classification Payload
Mass 6200.00 kg
Dry Mass 4000.00 kg
Total Mass 6200.00 kg
Length 9.80 m
Diameter 2.00 m
Span 23.10 m
Shape Box + 2 Pan
Manufacturer LMSS
Bus Type A2100M
Phase Status In Orbit
Owner/State AFMCSW/US

Large Constellations

Loading constellations...